Location: Unspecified
(0.0000°N, 1.0000°E)
Time: 03:39:38
(UTC+01:00)

Amateur Radio Satellites - All Passes

Search period start: 17 December 2017 03:09
Search period end: 18 December 2017 03:09
Location: Unspecified, 0.0000°N, 1.0000°E

Satellite Date Start Highest point End Downlink Frequencies (MHz)
Time Altitude Azimuth
RS-15 17 Dec 03:15:05 03:24:16 31° 249° (WSW) 03:33:23 29.354- 29.394
JUGNU 17 Dec 03:17:32 03:20:15 13° 349° (N) 03:22:59 437.505
Gurwin Techsat 1B 17 Dec 03:28:18 03:31:40 17° 283° (WNW) 03:35:02 435.225
BEESAT 17 Dec 03:30:04 03:34:10 29° 78° (ENE) 03:38:15 436.000
M-CUBED/EXP-1 PRIME 17 Dec 03:41:03 03:44:28 28° 104° (ESE) 03:47:40 437.505
ITAMSAT 1 17 Dec 03:44:06 03:48:29 28° 103° (ESE) 03:52:52 435.822/435.867
ITUPSAT 1 17 Dec 03:59:21 04:04:07 72° 78° (ENE) 04:08:50 437.325
NO-84 17 Dec 04:01:05 04:03:49 41° 122° (ESE) 04:06:30 435.350 FM
SRMSAT 17 Dec 04:05:08 04:10:27 33° 341° (NNW) 04:15:47 437.500
CUBESAT XI-V 17 Dec 04:18:04 04:22:13 33° 78° (ENE) 04:26:23 437.345
YUBILEINY 17 Dec 04:20:22 04:28:09 36° 273° (W) 04:35:59 435.215
MOZHAYETS 4 17 Dec 04:25:44 04:29:36 28° 258° (WSW) 04:33:28
AO-7 17 Dec 04:57:47 05:05:21 39° 286° (WNW) 05:12:58 .
BEESAT 17 Dec 05:09:11 05:11:39 14° 257° (WSW) 05:14:07 436.000
PCSat 17 Dec 05:23:54 05:29:09 55° 71° (ENE) 05:34:25 145.827
ITAMSAT 1 17 Dec 05:24:20 05:27:40 17° 283° (WNW) 05:31:00 435.822/435.867
DOVE 4 17 Dec 05:30:37 05:34:45 82° 101° (ESE) 05:38:54 437.250
SRMSAT 17 Dec 05:56:46 06:00:09 15° 348° (NNW) 06:03:34 437.500
KKS-1 17 Dec 05:56:47 06:01:16 88° 258° (WSW) 06:05:44 437.445
CUBESAT XI-V 17 Dec 05:57:56 05:59:18 11° 258° (WSW) 06:00:41 437.345
FALCONSAT 3 17 Dec 06:02:33 06:06:12 83° 34° (NE) 06:09:53 435.103
LilacSat-2 17 Dec 06:20:25 06:24:06 45° 101° (ESE) 06:27:46 437.200
NUDT-PHONESAT 17 Dec 06:25:04 06:28:15 27° 101° (ESE) 06:31:26 437.300
XW-2D 17 Dec 06:31:10 06:34:56 65° 101° (E) 06:38:43 145.860 - 145.880
STARS 17 Dec 06:32:37 06:37:03 88° 81° (E) 06:41:27 437.465
KAITUO 1B 17 Dec 06:33:01 06:36:33 39° 102° (ESE) 06:40:04 145.475/437.950
O/OREOS (USA 219) 17 Dec 06:41:15 06:42:19 11° 105° (ESE) 06:43:24 437.305
XW-2B 17 Dec 06:47:06 06:50:54 72° 280° (W) 06:54:41 145.730 - 145.750
HO-68 17 Dec 06:49:50 06:55:53 30° 105° (ESE) 07:01:55 435.675
BEESAT 3 17 Dec 06:52:31 06:56:18 79° 250° (WSW) 07:00:05 437.485
XW-2F 17 Dec 06:56:59 07:00:41 52° 281° (W) 07:04:23 145.980 - 146.000
JUGNU 17 Dec 06:57:58 07:00:30 13° 10° (N) 07:03:02 437.505
CUTE-I 17 Dec 07:06:08 07:11:24 70° 283° (WNW) 07:16:41 437.470
CUTE 1.7 + AOD 2 17 Dec 07:08:12 07:12:02 33° 101° (ESE) 07:15:53 437.475
XW-2C 17 Dec 07:15:19 07:18:25 24° 281° (WNW) 07:21:33 145.795 - 145.815
STRAND 1 17 Dec 07:18:42 07:22:41 23° 77° (ENE) 07:26:38 437.568
AO-85 17 Dec 07:25:41 07:27:15 11° 68° (ENE) 07:28:48 145.980
BEESAT 2 17 Dec 07:38:38 07:42:32 81° 68° (ENE) 07:46:24 435.950
XW-2A 17 Dec 07:53:27 07:56:10 22° 101° (E) 07:58:54 145.665 - 145.685
ISS 17 Dec 07:59:27 08:01:14 14° 126° (SE) 08:03:00 437.550
SEEDS 17 Dec 08:15:31 08:19:30 44° 281° (WNW) 08:23:30 437.485
UWE-3 17 Dec 08:16:04 08:20:35 82° 101° (E) 08:25:13 435.000/436.395/437.385
O/OREOS (USA 219) 17 Dec 08:17:21 08:21:28 32° 284° (WNW) 08:25:34 437.305
CUBEBUG 2 17 Dec 08:22:09 08:26:18 38° 281° (W) 08:30:38 437.445
AAUSAT CUBESAT 2 17 Dec 08:26:14 08:30:20 84° 102° (ESE) 08:34:26 437.432
ZACube-1 17 Dec 08:35:19 08:39:47 66° 102° (ESE) 08:44:20 437.345
HO-68 17 Dec 08:37:18 08:43:16 29° 285° (WNW) 08:49:17 435.675
FO-29 17 Dec 08:41:25 08:48:27 58° 76° (ENE) 08:56:01 435.910
nSIGHT-1 17 Dec 08:42:53 08:46:03 68° 306° (NW) 08:49:13 .
JUGNU 17 Dec 08:45:16 08:50:09 26° 18° (NNE) 08:55:05 437.505
Oscar 11 17 Dec 08:50:40 08:54:52 50° 102° (ESE) 08:59:05 .
STRAND 1 17 Dec 08:57:44 09:01:34 21° 257° (WSW) 09:05:25 437.568
AO-85 17 Dec 09:02:22 09:07:27 49° 248° (WSW) 09:12:38 145.980
AO-73 17 Dec 09:07:42 09:12:03 50° 282° (WNW) 09:16:30 145.935
ISS 17 Dec 09:35:15 09:37:30 17° 306° (NW) 09:39:45 437.550
SRMSAT 17 Dec 09:38:31 09:40:46 12° 8° (N) 09:43:02 437.500
Max Valier Satellite 17 Dec 10:14:19 10:18:00 63° 101° (E) 10:21:43 145.860
PRISM 17 Dec 10:15:28 10:16:52 11° 78° (ENE) 10:18:16 437.425
TIGRISAT 17 Dec 10:19:29 10:23:54 70° 78° (ENE) 10:28:10 435.000
UNISAT 6 17 Dec 10:23:28 10:27:55 89° 271° (W) 10:32:14 437.425
FO-29 17 Dec 10:29:07 10:33:15 16° 258° (WSW) 10:37:34 435.910
JUGNU 17 Dec 10:33:26 10:39:21 69° 21° (NNE) 10:45:20 437.505
EO-88 17 Dec 10:35:56 10:39:34 86° 102° (ESE) 10:43:14 145.990 - 145.960
DELFI C3 17 Dec 10:38:17 10:41:44 30° 281° (WNW) 10:45:11 145.870
LO-87 17 Dec 11:00:17 11:01:18 11° 102° (ESE) 11:02:19 145.935 - 145.965
ESTCUBE 1 17 Dec 11:22:54 11:26:20 21° 102° (ESE) 11:29:44 437.505/2401.250
SRMSAT 17 Dec 11:26:03 11:30:44 23° 17° (NNE) 11:35:26 437.500
AIST 2D 17 Dec 11:41:09 11:44:35 65° 80° (E) 11:48:03 435.315
NANOSAT C BR1 17 Dec 11:47:54 11:50:03 14° 78° (ENE) 11:52:13 145.865
PRISM 17 Dec 11:48:22 11:51:50 26° 258° (WSW) 11:55:18 437.425
EO-79 17 Dec 12:03:37 12:07:15 29° 79° (ENE) 12:10:52 145.935-145.965
JUGNU 17 Dec 12:22:47 12:28:27 43° 200° (SSW) 12:34:07 437.505
POLYITAN 1 17 Dec 12:26:51 12:31:02 66° 79° (ENE) 12:35:10 437.675
LO-87 17 Dec 12:31:55 12:34:24 18° 281° (W) 12:36:55 145.935 - 145.965
RS-15 17 Dec 12:42:57 12:53:43 39° 111° (ESE) 13:04:40 29.354- 29.394
VELOX 1 17 Dec 12:44:02 12:47:27 23° 102° (ESE) 12:50:52 145.980
QB50P2 17 Dec 12:52:57 12:56:56 41° 258° (WSW) 13:00:54 145.880/145.840
DUCHIFAT 1 17 Dec 12:53:16 12:57:26 70° 258° (WSW) 13:01:34 145.980
AO-91 17 Dec 12:57:43 12:58:47 11° 80° (E) 12:59:49 145.960
ESTCUBE 1 17 Dec 12:59:55 13:02:50 17° 282° (WNW) 13:05:46 437.505/2401.250
SPROUT 17 Dec 13:02:06 13:06:21 87° 105° (ESE) 13:10:38 437.525
SRMSAT 17 Dec 13:14:16 13:20:10 59° 21° (NNE) 13:26:03 437.500
Oscar 19 17 Dec 13:22:05 13:25:57 22° 77° (ENE) 13:29:48 437.125/150
NANOSAT C BR1 17 Dec 13:22:14 13:25:29 22° 258° (WSW) 13:28:43 145.865
BUGSAT 1 17 Dec 13:22:52 13:26:48 43° 78° (ENE) 13:30:39 437.445
DX 1 17 Dec 13:32:02 13:34:12 14° 103° (ESE) 13:36:23 434.975-435.025
EO-79 17 Dec 13:42:01 13:42:43 10° 258° (WSW) 13:43:26 145.935-145.965
JUGNU 17 Dec 14:13:45 14:17:52 19° 195° (SSW) 14:21:59 437.505
50 SAT 17 Dec 14:18:44 14:21:51 84° 104° (ESE) 14:24:59 437.505
VELOX 1 17 Dec 14:21:08 14:23:36 15° 282° (WNW) 14:26:06 145.980
SO-50 17 Dec 14:23:26 14:27:47 53° 292° (WNW) 14:32:06 436.795
Gurwin Techsat 1B 17 Dec 14:25:11 14:30:32 88° 79° (E) 14:35:51 435.225
AO-91 17 Dec 14:29:55 14:35:02 47° 258° (WSW) 14:39:50 145.960
UKube-1 17 Dec 14:43:56 14:48:13 84° 103° (ESE) 14:52:31 .
RS-15 17 Dec 14:54:49 15:05:43 41° 291° (WNW) 15:16:56 29.354- 29.394
YUBILEINY 17 Dec 14:56:48 15:05:18 57° 87° (E) 15:13:46 435.215
Oscar 19 17 Dec 15:01:04 15:04:59 22° 257° (WSW) 15:08:53 437.125/150
SRMSAT 17 Dec 15:03:35 15:09:23 51° 201° (SSW) 15:15:10 437.500
MOZHAYETS 4 17 Dec 15:05:38 15:09:14 23° 102° (ESE) 15:12:51
DX 1 17 Dec 15:06:38 15:10:06 24° 282° (WNW) 15:13:36 434.975-435.025
AO-7 17 Dec 15:31:32 15:39:20 46° 74° (ENE) 15:47:07 .
M-CUBED/EXP-1 PRIME 17 Dec 15:38:45 15:42:08 27° 73° (ENE) 15:45:44 437.505
NO-84 17 Dec 15:41:27 15:45:26 43° 58° (ENE) 15:49:30 435.350 FM
BEESAT 17 Dec 15:51:11 15:55:50 57° 102° (ESE) 16:00:32 436.000
JUGNU 17 Dec 16:06:28 16:07:49 11° 186° (S) 16:09:10 437.505
ITAMSAT 1 17 Dec 16:18:17 16:23:32 77° 76° (ENE) 16:28:43 435.822/435.867
PCSat 17 Dec 16:20:48 16:22:08 11° 110° (ESE) 16:23:28 145.827
ITUPSAT 1 17 Dec 16:21:29 16:26:10 58° 283° (WNW) 16:30:54 437.325
CUBESAT XI-V 17 Dec 16:35:48 16:40:24 60° 102° (ESE) 16:45:00 437.345
MOZHAYETS 4 17 Dec 16:43:05 16:46:07 17° 282° (WNW) 16:49:09
SRMSAT 17 Dec 16:54:29 16:58:51 21° 196° (SSW) 17:03:14 437.500
YUBILEINY 17 Dec 16:56:35 17:01:41 17° 267° (W) 17:06:50 435.215
M-CUBED/EXP-1 PRIME 17 Dec 17:15:21 17:16:20 11° 256° (WSW) 17:17:20 437.505
AO-7 17 Dec 17:25:33 17:31:43 23° 253° (WSW) 17:37:53 .
FALCONSAT 3 17 Dec 17:45:30 17:49:10 77° 143° (SE) 17:52:51 435.103
DOVE 4 17 Dec 17:50:00 17:55:09 55° 258° (WSW) 18:00:19 437.250
JUGNU 17 Dec 17:56:44 17:58:03 11° 175° (S) 17:59:23 437.505
PCSat 17 Dec 18:00:07 18:05:17 47° 289° (WNW) 18:10:27 145.827
CUTE-I 17 Dec 18:06:52 18:10:58 22° 77° (ENE) 18:15:04 437.470
KKS-1 17 Dec 18:09:11 18:13:30 58° 282° (WNW) 18:17:51 437.445
LilacSat-2 17 Dec 18:14:47 18:18:15 35° 79° (E) 18:21:44 437.200
NUDT-PHONESAT 17 Dec 18:16:28 18:19:07 19° 79° (ENE) 18:21:45 437.300
XW-2D 17 Dec 18:24:41 18:28:19 49° 79° (E) 18:31:57 145.860 - 145.880
KAITUO 1B 17 Dec 18:25:10 18:28:25 29° 79° (E) 18:31:39 145.475/437.950
XW-2B 17 Dec 18:40:33 18:44:18 87° 80° (E) 18:48:04 145.730 - 145.750
HO-68 17 Dec 18:41:50 18:47:31 25° 75° (ENE) 18:53:10 435.675
STARS 17 Dec 18:43:17 18:47:35 65° 282° (WNW) 18:51:56 437.465
BEESAT 3 17 Dec 18:43:31 18:47:26 81° 292° (WNW) 18:51:22 437.485
SRMSAT 17 Dec 18:47:12 18:48:52 11° 187° (S) 18:50:33 437.500
XW-2F 17 Dec 18:49:51 18:53:34 70° 259° (W) 18:57:17 145.980 - 146.000
O/OREOS (USA 219) 17 Dec 18:50:16 18:53:16 18° 76° (ENE) 18:56:17 437.305
CUBEBUG 2 17 Dec 19:00:37 19:02:37 13° 79° (E) 19:04:36 437.445
XW-2C 17 Dec 19:08:33 19:11:52 30° 259° (WSW) 19:15:11 145.795 - 145.815
CUTE 1.7 + AOD 2 17 Dec 19:14:12 19:18:12 41° 79° (ENE) 19:22:10 437.475
BEESAT 2 17 Dec 19:31:05 19:35:00 84° 111° (ESE) 19:38:57 435.950
XW-2A 17 Dec 19:37:24 19:38:17 11° 79° (ENE) 19:39:10 145.665 - 145.685
AO-85 17 Dec 19:38:17 19:40:03 13° 113° (ESE) 19:41:47 145.980
JUGNU 17 Dec 19:43:57 19:48:01 19° 165° (SSE) 19:52:03 437.505
CUTE-I 17 Dec 19:46:29 19:50:44 24° 257° (WSW) 19:54:58 437.470
STRAND 1 17 Dec 19:50:08 19:55:07 57° 103° (ESE) 20:00:08 437.568
NUDT-PHONESAT 17 Dec 19:51:34 19:52:40 11° 259° (WSW) 19:53:46 437.300
nSIGHT-1 17 Dec 20:14:47 20:17:55 59° 55° (NE) 20:21:04 .
FO-29 17 Dec 20:17:47 20:22:19 25° 101° (E) 20:26:35 435.910
SEEDS 17 Dec 20:20:38 20:24:31 37° 259° (W) 20:28:23 437.485
UWE-3 17 Dec 20:27:41 20:31:56 67° 258° (WSW) 20:36:04 435.000/436.395/437.385
HO-68 17 Dec 20:28:29 20:34:54 35° 255° (WSW) 20:41:19 435.675
O/OREOS (USA 219) 17 Dec 20:29:17 20:32:23 19° 255° (WSW) 20:35:30 437.305
AAUSAT CUBESAT 2 17 Dec 20:29:24 20:33:34 86° 255° (WSW) 20:37:43 437.432
CUBEBUG 2 17 Dec 20:35:26 20:39:00 24° 258° (WSW) 20:42:28 437.445
ZACube-1 17 Dec 20:45:28 20:49:39 89° 241° (WSW) 20:53:48 437.345
Oscar 11 17 Dec 20:59:14 21:03:31 68° 78° (ENE) 21:07:46 .
ISS 17 Dec 21:08:31 21:11:21 27° 234° (SW) 21:14:11 437.550
XW-2A 17 Dec 21:08:45 21:10:42 15° 259° (WSW) 21:12:39 145.665 - 145.685
AO-85 17 Dec 21:17:21 21:20:10 19° 292° (WNW) 21:22:57 145.980
AO-73 17 Dec 21:17:46 21:21:33 34° 258° (WSW) 21:25:17 145.935
JUGNU 17 Dec 21:31:47 21:37:24 44° 160° (SSE) 21:42:58 437.505
FO-29 17 Dec 22:02:59 22:07:09 21° 285° (WNW) 22:11:04 435.910
Max Valier Satellite 17 Dec 22:05:17 22:08:44 42° 79° (E) 22:12:11 145.860
PRISM 17 Dec 22:17:38 22:19:09 12° 102° (ESE) 22:20:40 437.425
EO-88 17 Dec 22:25:24 22:28:56 54° 79° (E) 22:32:29 145.990 - 145.960
SRMSAT 17 Dec 22:25:44 22:29:25 17° 166° (SSE) 22:33:06 437.500
TIGRISAT 17 Dec 22:31:55 22:36:25 77° 281° (W) 22:41:03 435.000
DELFI C3 17 Dec 22:35:57 22:39:34 34° 259° (WSW) 22:43:12 145.870
UNISAT 6 17 Dec 22:36:11 22:40:37 59° 282° (WNW) 22:45:11 437.425
JUGNU 17 Dec 23:20:35 23:26:27 67° 339° (NNW) 23:32:15 437.505
AIST 2D 17 Dec 23:26:54 23:30:08 34° 101° (E) 23:33:21 435.315
ESTCUBE 1 17 Dec 23:36:15 23:40:16 33° 78° (ENE) 23:44:18 437.505/2401.250
PRISM 17 Dec 23:50:55 23:54:08 23° 282° (WNW) 23:57:23 437.425
NANOSAT C BR1 17 Dec 23:52:41 23:55:25 17° 102° (ESE) 23:58:11 145.865
EO-79 18 Dec 00:09:09 00:13:01 35° 102° (ESE) 00:16:55 145.935-145.965
SRMSAT 18 Dec 00:13:34 00:19:02 38° 160° (SSE) 00:24:30 437.500
LO-87 18 Dec 00:18:56 00:22:03 28° 259° (WSW) 00:25:08 145.935 - 145.965
RS-15 18 Dec 00:27:05 00:36:24 30° 68° (ENE) 00:45:25 29.354- 29.394
POLYITAN 1 18 Dec 00:32:41 00:36:56 82° 101° (E) 00:41:14 437.675
VELOX 1 18 Dec 00:54:51 00:58:51 33° 78° (ENE) 01:02:49 145.980
SO-50 18 Dec 00:57:29 01:00:02 14° 68° (ENE) 01:02:35 436.795
DUCHIFAT 1 18 Dec 00:58:18 01:02:26 59° 282° (WNW) 01:06:37 145.980
QB50P2 18 Dec 00:59:04 01:02:55 34° 281° (WNW) 01:06:47 145.880/145.840
SPROUT 18 Dec 01:09:04 01:13:19 74° 257° (WSW) 01:17:33 437.525
JUGNU 18 Dec 01:10:50 01:15:36 26° 342° (NNW) 01:20:23 437.505
ESTCUBE 1 18 Dec 01:15:44 01:16:47 11° 258° (WSW) 01:17:49 437.505/2401.250
BUGSAT 1 18 Dec 01:25:26 01:29:24 48° 102° (ESE) 01:33:26 437.445
Gurwin Techsat 1B 18 Dec 01:26:03 01:29:16 16° 103° (ESE) 01:32:29 435.225
NANOSAT C BR1 18 Dec 01:27:54 01:30:51 19° 282° (WNW) 01:33:50 145.865
DX 1 18 Dec 01:40:40 01:43:45 19° 78° (ENE) 01:46:50 434.975-435.025
YUBILEINY 18 Dec 01:40:49 01:42:20 10° 93° (E) 01:43:52 435.215
Oscar 19 18 Dec 01:54:29 01:59:34 57° 103° (ESE) 02:04:39 437.125/150
50 SAT 18 Dec 01:55:40 01:58:25 27° 79° (ENE) 02:01:09 437.505
SRMSAT 18 Dec 02:02:19 02:08:16 79° 339° (NNW) 02:14:13 437.500
VELOX 1 18 Dec 02:34:08 02:34:59 10° 257° (WSW) 02:35:51 145.980
SO-50 18 Dec 02:36:05 02:40:15 30° 248° (WSW) 02:44:27 436.795
RS-15 18 Dec 02:38:00 02:48:18 45° 249° (WSW) 02:58:27 29.354- 29.394
AO-91 18 Dec 02:42:23 02:45:12 23° 280° (W) 02:48:12 145.960
UKube-1 18 Dec 02:52:13 02:56:32 73° 257° (WSW) 03:00:50 .
JUGNU 18 Dec 03:02:54 03:05:16 12° 350° (N) 03:07:38 437.505
